{"data":{"norad_id":61890,"intl_designator":"2024-204S","name":"STARLINK-32501","alt_names":[],"object_type":"PAYLOAD","status":"ACTIVE","operator":null,"country":"US","launch_date":"2024-11-09","launch_site_code":"AFWTR","launch_vehicle":null,"mission":null,"orbit_class":"UNKNOWN","rcs_meters":null,"size_class":null,"mass_kg":null,"dimensions":null,"purposes":["comms"],"wikipedia_slug":null,"has_3d_model":false,"image_url":null,"decayed_at":null,"tle_current":{"epoch":"2026-05-25T05:11:54.290112Z","epoch_age_seconds":63219,"freshness":"FRESH","line1":"1 61890U 24204S   26145.21660058 -.00000999  00000+0 -18443-4 0  9994","line2":"2 61890  53.1619 130.9506 0001043  93.1634 266.9488 15.34396102 86820","mean_motion":15.34396102,"eccentricity":0.0001043,"inclination_deg":53.1619,"raan_deg":130.9506,"arg_perigee_deg":93.1634,"mean_anomaly_deg":266.9488,"bstar":-1.8443e-5,"rev_number":8682,"period_min":93.847996493411,"perigee_km":462.00132506366,"apogee_km":463.42832675454,"semimajor_km":6840.8518259091,"source":"CELESTRAK","updated_at":"2026-05-25T13:38:19.478641Z"}}}